Weather History for Arbor Vitae, WI

Change the Weather History Date:

Wednesday, May 13, 2009

  Actual Average Record
Temperature  
Mean Temperature 54 °F -  
Max Temperature 56 °F 63 °F 85 °F (1977)
Min Temperature 51 °F 37 °F 19 °F (1953)
Degree Days  
Heating Degree Days 12    
Growing Degree Days 4 (Base 50)    
Moisture  
Dew Point 49 °F    
Average Humidity 80    
Maximum Humidity 92    
Minimum Humidity 48    
Precipitation  
Precipitation 0.23 in - - ()
Sea Level Pressure  
Sea Level Pressure 29.66 in    
Wind  
Wind Speed 13 mph (South)    
Max Wind Speed 17 mph    
Max Gust Speed 26 mph    
Visibility 5 miles    
Events Rain    
Averages and records for this station are not official NWS values.
T = Trace of Precipitation, MM = Missing Value Source: NWS Daily Summary

Daily Weather History Graph

Daily Weather History Graph

Search for Another Location

Airport:

Trip Planner

Search our weather history database for the weather conditions in past years. The results will help you decide how hot, cold, wet, or windy it might be!

Date:

Astronomy

May. 13, 2009 Rise Set
Actual Time 5:29 AM CDT 8:22 PM CDT
Civil Twilight 4:54 AM CDT 8:57 PM CDT
Nautical Twilight 4:10 AM CDT 9:41 PM CDT
Astronomical Twilight 3:17 AM CDT 10:34 PM CDT
Moon 12:06 AM CDT (5/13) 8:32 AM CDT (5/13)
Length of Visible Light 16h 02m
Length of Day
14h 53m
Waning Gibbous, 82% of the Moon is Illuminated
May 13
Waning Gibbous
May 17
Last Quarter
May 24
New
May 30
First Quarter
Jun 7
Full

Hourly Weather History & Observations

Time (CDT) Temp. Dew Point Humidity Pressure Visibility Wind Dir Wind Speed Gust Speed Precip Events Conditions
12:13 AM 56.8 °F 38.3 °F 50% 29.82 in 10.0 mi SSE 11.5 mph 17.3 mph N/A   Scattered Clouds
12:33 AM 56.8 °F 38.5 °F 50% 29.79 in 10.0 mi SSE 11.5 mph 19.6 mph N/A   Clear
12:53 AM 56.8 °F 37.9 °F 49% 29.78 in 10.0 mi SSE 16.1 mph 20.7 mph N/A   Clear
1:13 AM 56.8 °F 37.6 °F 49% 29.81 in 10.0 mi South 11.5 mph 24.2 mph N/A   Clear
1:35 AM 56.8 °F 37.4 °F 48% 29.79 in 10.0 mi SSE 15.0 mph 18.4 mph N/A   Clear
1:53 AM 56.8 °F 37.4 °F 48% 29.78 in 10.0 mi SSE 17.3 mph 23.0 mph N/A   Clear
2:13 AM 56.8 °F 37.8 °F 49% 29.79 in 10.0 mi South 13.8 mph 21.9 mph N/A   Clear
2:33 AM 56.8 °F 38.1 °F 50% 29.78 in 10.0 mi SSE 13.8 mph 19.6 mph N/A   Scattered Clouds
2:53 AM 56.8 °F 38.5 °F 50% 29.77 in 10.0 mi South 13.8 mph 20.7 mph N/A   Overcast
3:13 AM 56.8 °F 39.2 °F 52% 29.76 in 10.0 mi South 16.1 mph 21.9 mph N/A   Overcast
3:33 AM 56.8 °F 40.1 °F 54% 29.77 in 10.0 mi South 15.0 mph 23.0 mph N/A   Overcast
3:53 AM 56.8 °F 40.8 °F 55% 29.76 in 10.0 mi South 16.1 mph 23.0 mph N/A   Overcast
4:13 AM 56.8 °F 41.5 °F 57% 29.76 in 10.0 mi SSE 11.5 mph 24.2 mph N/A   Overcast
4:33 AM 56.8 °F 43.0 °F 60% 29.75 in 10.0 mi South 12.7 mph 26.5 mph N/A   Overcast
4:53 AM 56.8 °F 45.0 °F 64% 29.73 in 10.0 mi SSE 16.1 mph 24.2 mph N/A   Overcast
5:13 AM 54.5 °F 45.0 °F 70% 29.72 in 10.0 mi South 12.7 mph 24.2 mph N/A Rain Light Rain
5:33 AM 56.8 °F 46.2 °F 68% 29.72 in 10.0 mi SSE 16.1 mph 21.9 mph N/A Rain Light Rain
5:53 AM 54.5 °F 46.6 °F 75% 29.72 in 7.0 mi South 15.0 mph 23.0 mph N/A Rain Rain
6:13 AM 51.8 °F 47.7 °F 86% 29.72 in 5.0 mi SSE 15.0 mph 19.6 mph N/A   Drizzle
6:33 AM 51.8 °F 48.4 °F 88% 29.70 in 4.0 mi SSE 15.0 mph 19.6 mph 0.01 in Rain Rain
6:53 AM 51.8 °F 48.7 °F 89% 29.70 in 5.0 mi South 12.7 mph 19.6 mph 0.01 in Rain Light Rain
7:13 AM 51.8 °F 49.1 °F 90% 29.70 in 3.0 mi South 13.8 mph 24.2 mph 0.01 in   Drizzle
7:33 AM 51.8 °F 49.1 °F 90% 29.69 in 3.0 mi South 13.8 mph - 0.02 in   Drizzle
7:53 AM 51.8 °F 49.1 °F 90% 29.68 in 3.0 mi SSE 12.7 mph 25.3 mph 0.03 in Rain Rain
8:13 AM 51.8 °F 49.3 °F 91% 29.67 in 2.0 mi SSE 11.5 mph 19.6 mph N/A   Drizzle
8:33 AM 51.8 °F 49.3 °F 91% 29.67 in 2.5 mi SSE 13.8 mph 20.7 mph 0.01 in Rain Light Rain
8:53 AM 51.8 °F 49.3 °F 91% 29.66 in 3.0 mi South 11.5 mph 23.0 mph 0.01 in   Light Drizzle
9:13 AM 51.8 °F 49.1 °F 90% 29.65 in 2.5 mi South 12.7 mph 21.9 mph N/A Rain Light Rain
9:33 AM 51.8 °F 49.3 °F 91% 29.63 in 2.5 mi SSE 12.7 mph 24.2 mph N/A   Light Drizzle
9:53 AM 52.2 °F 49.6 °F 91% 29.62 in 4.0 mi South 12.7 mph 21.9 mph N/A   Overcast
10:13 AM 53.1 °F 50.5 °F 91% 29.61 in 2.0 mi South 15.0 mph 19.6 mph N/A   Overcast
10:33 AM 53.1 °F 50.5 °F 91% 29.62 in 3.0 mi South 12.7 mph 21.9 mph N/A   Overcast
10:53 AM 53.6 °F 51.1 °F 91% 29.63 in 2.5 mi South 16.1 mph 25.3 mph N/A   Overcast
11:13 AM 54.1 °F 51.6 °F 91% 29.62 in 3.0 mi South 12.7 mph 21.9 mph N/A   Light Drizzle
11:33 AM 54.5 °F 51.8 °F 91% 29.62 in 2.0 mi South 10.4 mph 18.4 mph N/A   Light Drizzle
11:53 AM 54.5 °F 51.8 °F 91% 29.62 in 2.5 mi South 12.7 mph - N/A   Drizzle
12:13 PM 54.5 °F 51.8 °F 91% 29.61 in 2.0 mi SSE 9.2 mph 18.4 mph 0.01 in   Light Drizzle
12:33 PM 54.5 °F 51.8 °F 91% 29.61 in 2.0 mi South 13.8 mph 18.4 mph 0.01 in   Light Drizzle
12:53 PM 56.8 °F 54.5 °F 92% 29.60 in 2.5 mi South 10.4 mph - 0.01 in   Overcast
1:13 PM 56.8 °F 54.5 °F 92% 29.59 in 2.5 mi South 10.4 mph 16.1 mph N/A   Overcast
1:33 PM 56.8 °F 54.5 °F 92% 29.59 in 3.0 mi South 10.4 mph 16.1 mph N/A   Overcast
1:53 PM 56.8 °F 54.5 °F 92% 29.60 in 4.0 mi South 16.1 mph 20.7 mph N/A   Overcast
2:13 PM 56.8 °F 54.5 °F 92% 29.60 in 4.0 mi South 11.5 mph 19.6 mph N/A   Overcast
2:33 PM 56.8 °F 54.5 °F 92% 29.60 in 2.5 mi South 11.5 mph 18.4 mph N/A   Overcast
2:53 PM 56.8 °F 54.5 °F 92% 29.60 in 2.0 mi South 10.4 mph - N/A   Overcast
3:13 PM 56.8 °F 54.5 °F 92% 29.59 in 1.5 mi South 11.5 mph 16.1 mph N/A   Light Drizzle
3:33 PM 56.8 °F 54.5 °F 92% 29.58 in 1.5 mi South 10.4 mph - N/A   Light Drizzle
3:53 PM 56.8 °F 54.5 °F 92% 29.59 in 1.5 mi South 12.7 mph 17.3 mph N/A   Light Drizzle
4:13 PM 56.8 °F 54.7 °F 92% 29.60 in 1.5 mi SSW 10.4 mph - N/A   Overcast
4:33 PM 56.8 °F 54.7 °F 92% 29.61 in 1.2 mi SW 6.9 mph - 0.02 in Rain Rain
4:53 PM 56.8 °F 54.7 °F 92% 29.60 in 3.0 mi South 6.9 mph - 0.05 in Rain Light Rain
5:13 PM 56.8 °F 54.7 °F 92% 29.57 in 5.0 mi SSE 5.8 mph - N/A Rain Light Rain
5:33 PM 56.8 °F 54.7 °F 92% 29.57 in 4.0 mi South 6.9 mph - 0.02 in Rain Rain
5:53 PM 56.8 °F 54.7 °F 92% 29.55 in 4.0 mi South 6.9 mph - 0.05 in Rain Light Rain
6:13 PM 56.8 °F 54.7 °F 92% 29.53 in 5.0 mi SSE 6.9 mph - N/A   Drizzle
6:33 PM 56.8 °F 54.7 °F 92% 29.53 in 4.0 mi Calm Calm - 0.01 in Rain Rain
6:53 PM 56.8 °F 54.7 °F 92% 29.52 in 3.0 mi Calm Calm - 0.04 in Rain Light Rain
7:13 PM 56.8 °F 54.7 °F 92% 29.56 in 3.0 mi SW 4.6 mph - 0.03 in Rain Heavy Rain
7:33 PM 56.8 °F 54.7 °F 92% 29.57 in 3.0 mi Calm Calm - 0.14 in Rain Heavy Rain
7:53 PM 56.8 °F 54.7 °F 92% 29.53 in 4.0 mi SSE 6.9 mph - 0.29 in Rain Heavy Rain
8:13 PM 56.8 °F 54.5 °F 92% 29.53 in 10.0 mi SSE 9.2 mph - 0.04 in Rain Rain
8:33 PM 56.8 °F 54.5 °F 92% 29.50 in 10.0 mi SSE 6.9 mph - 0.05 in Rain Light Rain
8:53 PM 56.8 °F 54.5 °F 92% 29.51 in 10.0 mi South 5.8 mph - 0.05 in   Overcast
9:13 PM 56.8 °F 54.5 °F 92% 29.50 in 10.0 mi SE 3.5 mph - N/A   Overcast
9:33 PM 55.2 °F 52.5 °F 91% 29.49 in 10.0 mi Calm Calm - N/A   Overcast
9:53 PM 54.5 °F 52.0 °F 91% 29.48 in 10.0 mi SSE 4.6 mph - N/A   Overcast
10:13 PM 54.5 °F 52.0 °F 91% 29.47 in 10.0 mi South 4.6 mph - N/A   Overcast
10:33 PM 53.1 °F 50.9 °F 92% 29.47 in 10.0 mi South 4.6 mph - N/A   Scattered Clouds
10:53 PM 53.1 °F 50.9 °F 92% 29.46 in 10.0 mi South 5.8 mph - N/A   Scattered Clouds
11:13 PM 54.1 °F 51.8 °F 92% 29.47 in 10.0 mi SW 4.6 mph - N/A   Scattered Clouds
11:33 PM 54.5 °F 51.8 °F 91% 29.48 in 10.0 mi SW 8.1 mph - N/A   Scattered Clouds
11:53 PM 54.5 °F 51.3 °F 89% 29.48 in 10.0 mi WSW 8.1 mph - N/A   Mostly Cloudy